Home > Weather > Lakeland > Past weeks

Flag for USA Past Weather in Lakeland, Florida, USA — Yesterday and Last 2 Weeks

Now
77 °F

Clear.


Feels Like: 78 °F
Forecast: 76 / 90 °F
Wind: No wind

Location: Lakeland Regional

Current Time: Jul 30, 2016 at 7:12:58 AM

Latest Report: Jul 30, 2016 at 5:50 AM


Visibility: 10 mi

Pressure: 30.02 "Hg

Humidity: 94%

Dew Point: 75 °F

Location of LakelandLocation

Past Weather in Lakeland — Graph

°F

Lakeland Temperature Yesterday

Maximum temperature yesterday: 88 °F (at 10:50 AM)
Minimum temperature yesterday: 75 °F (at 12:50 PM)
Average temperature yesterday: 80 °F

High & Low Weather Summary for the Past Weeks

 TemperatureHumidityPressure
High93 °F (Jul 15, 3:55 PM)100% (Jul 16, 9:45 PM)30.23 "Hg (Jul 16, 9:45 PM)
Low70 °F (Jul 23, 2:55 AM)44% (Jul 15, 4:45 PM)30.00 "Hg (Jul 15, 5:51 PM)
Average80 °F84%30.09 "Hg
* Reported Jul 15 5:15 AM — Jul 30 5:50 AM, Lakeland, Weather by CustomWeather, © 2016

Note: Actual official high and low records may vary slightly from our data, if they occured in-between our weather recording intervals... More about our weather records

Advertising

Lakeland Weather History for the Previous 24 Hours

Scroll right to see more
 ConditionsComfort  
Time TempWeatherWind HumidityBarometerVisibility
5:50 AM
Sat, Jul 30
77 °FClear.No wind94%30.02 "Hg10 mi
5:35 AM75 °FClear.No wind100%30.02 "Hg10 mi
5:15 AM77 °FClear.No wind94%30.02 "Hg10 mi
4:55 AM77 °FClear.No wind94%30.01 "Hg7 mi
4:35 AM77 °FClear.No wind94%30.02 "Hg10 mi
4:15 AM77 °FClear.No wind94%30.02 "Hg10 mi
3:55 AM77 °FClear.No wind94%30.02 "Hg10 mi
3:35 AM77 °FClear.No wind94%30.03 "Hg10 mi
3:15 AM77 °FClear.No wind100%30.03 "Hg10 mi
2:55 AM77 °FClear.No wind94%30.03 "Hg10 mi
2:35 AM77 °FClear.No wind100%30.04 "Hg10 mi
2:15 AM77 °FClear.3 mph100%30.04 "Hg10 mi
1:55 AM77 °FClear.No wind100%30.04 "Hg10 mi
1:35 AM77 °FClear.3 mph100%30.05 "Hg10 mi
1:15 AM77 °FClear.No wind100%30.05 "Hg10 mi
12:55 AM79 °FClear.No wind89%30.05 "Hg10 mi
12:35 AM77 °FClear.No wind100%30.05 "Hg10 mi
12:15 AM79 °FClear.3 mph94%30.05 "Hg10 mi
11:55 PM
Fri, Jul 29
79 °FThundershowers. Clear.No wind89%30.05 "Hg10 mi
11:35 PM79 °FClear.No wind89%30.06 "Hg10 mi
11:15 PM79 °FPassing clouds.3 mph94%30.06 "Hg10 mi
10:55 PM79 °FPassing clouds.6 mph94%30.06 "Hg10 mi
10:35 PM79 °FPassing clouds.5 mph94%30.06 "Hg10 mi
10:15 PM79 °FClear.3 mph94%30.05 "Hg10 mi
9:50 PM81 °FClear.No wind94%30.04 "Hg10 mi
8:50 PM81 °FSunny.No wind89%30.03 "Hg10 mi
6:50 PM82 °FScattered clouds.No wind84%30.04 "Hg10 mi
5:50 PM84 °FScattered clouds.5 mph79%30.03 "Hg10 mi
4:46 PM82 °FScattered clouds.5 mph84%30.05 "Hg10 mi
3:52 PM81 °FScattered clouds.No wind84%30.05 "Hg10 mi
2:50 PM79 °FScattered clouds.5 mph89%30.06 "Hg10 mi
1:50 PM79 °FThundershowers. Scattered clouds.5 mph89%30.07 "Hg7 mi
12:50 PM75 °FThunderstorms. Overcast.8 mph94%30.08 "Hg4 mi
11:50 AM88 °FScattered showers. Partly sunny.No wind66%30.07 "Hg10 mi
10:50 AM88 °FScattered clouds.No wind70%30.08 "Hg10 mi
9:50 AM86 °FPartly sunny.5 mph75%30.08 "Hg10 mi
8:50 AM82 °FScattered clouds.No wind84%30.08 "Hg10 mi
7:50 AM79 °FScattered clouds.No wind94%30.07 "Hg10 mi
Weather by CustomWeather, © 2016

See weather overviewHow to use our weather pages